Voltar ao catálogo

STARLINK-31861

AtivoComunicaçõesVLEO
NORAD 59906·PAYLOAD·🇺🇸 United States

Lançado May 28, 2024 de Cape Canaveral Space Force Station

Loading…

Próximas Passagens (próximas 24 horas)

TLE

AtualizadoSource: CelesTrak SupGP

Época: Sep 15, 2026, 02:01 UTC

1 59906C 24100X   26258.08451389  .00056363  00000+0  20417-2 0  2583
2 59906  43.0001 128.6573 0001355 271.7085 121.8724 15.27546498    12

Acompanhe STARLINK-31861 em tempo real com AllMySat

Download on the App Store